ONEWEB-0064 (45433 NORAD) Tracking and Keplerian Element Data

This shows tracking and keplerian element data for the satellite.

Feedback or suggestion? Click here.




ElementValue
Catalog45433
NameONEWEB-0064
Epoch Orbit157
Epoch Day93.91667824
Epoch Year2020
RAAN134.5816
Inclination87.399
Eccentricity0.0023009
Argument of Perigee260.4318
Mean Anonmoly311.8944
Mean Motion15.37454688
Decay Rate0.00044789
L11 45433U 20020K 20093.91667824 .00044789 00000-0 12038-2 0 9998
L22 45433 87.3990 134.5816 0023009 260.4318 311.8944 15.37454688 1577

Live tracking and technical data element details for ONEWEB-0064 (NORAD 45433). ONEWEB-0064 can be tracked NOW for your location showing map with azimuth and elevation plus other details from your city location.

Track the satellite on the map from your city or location and see movement details for azimuth, elevation, latitude, longitude, range, height, and movement on the map or in text.







IsCatalogInMostPopularTable: catalog: 45433, numindb: 4
Update: records affected: 1



GetName: 45433 ONEWEB-0064

Hit Count: updated at: Tue, 07 Apr 2020 15:34:34 GMT